CFG3VT LEPA-EDDF

Flight info

Callsign CFG3VT
Flight time N/A
Altitude 32000
Route MEROS DCT LAPIT DCT CHELY DCT LUMAS DCT MAXIR DCT LUSOL DCT BODRU DCT OKTET DCT IRMAR/N0448F340 DCT BERSU N871 DITON/N0448F350 DCT LADOL/N0447F340 T163 EMPAX EMPAX5B
Aircraft A321/M-SDE3FGHIRWY/LB1

Departure

Time 2026-05-04 12:34
Airport Palma de Mallorca Airport (LEPA)

Arrival

Time N/A
Airport Frankfurt Main Airport (EDDF)
Time Latitude Longitude Altitude Speed Heading
2026-05-04 12:20 39.54798 2.73595 38 ft 0 kts 58°
2026-05-04 12:23 39.54798 2.73594 38 ft 2 kts 58°
2026-05-04 12:23 39.54783 2.73568 36 ft 4 kts 40°
2026-05-04 12:24 39.54761 2.73552 33 ft 4 kts
2026-05-04 12:24 39.54740 2.73554 37 ft 1 kts 329°
2026-05-04 12:24 39.54739 2.73555 37 ft 0 kts 329°
2026-05-04 12:26 39.54743 2.73552 36 ft 1 kts 329°
2026-05-04 12:27 39.54758 2.73535 36 ft 5 kts 314°
2026-05-04 12:27 39.54764 2.73482 38 ft 8 kts 236°
2026-05-04 12:27 39.54700 2.73495 38 ft 13 kts 148°
2026-05-04 12:27 39.54632 2.73559 38 ft 11 kts 121°
2026-05-04 12:28 39.54651 2.73640 38 ft 9 kts 64°
2026-05-04 12:28 39.54676 2.73707 38 ft 8 kts 61°
2026-05-04 12:28 39.54702 2.73765 38 ft 8 kts 60°
2026-05-04 12:28 39.54732 2.73829 38 ft 9 kts 58°
2026-05-04 12:29 39.54768 2.73901 38 ft 10 kts 57°
2026-05-04 12:29 39.54806 2.73975 38 ft 10 kts 52°
2026-05-04 12:29 39.54869 2.73981 38 ft 10 kts 333°
2026-05-04 12:29 39.54931 2.73974 38 ft 10 kts 44°
2026-05-04 12:30 39.54984 2.73999 38 ft 9 kts 336°
2026-05-04 12:30 39.55045 2.73953 37 ft 12 kts 328°
2026-05-04 12:30 39.55133 2.73880 37 ft 19 kts 326°
2026-05-04 12:30 39.55267 2.73777 38 ft 26 kts 330°
2026-05-04 12:31 39.55421 2.73656 38 ft 26 kts 328°
2026-05-04 12:31 39.55568 2.73539 38 ft 25 kts 330°
2026-05-04 12:31 39.55669 2.73534 38 ft 13 kts 50°
2026-05-04 12:31 39.55717 2.73632 38 ft 13 kts 59°
2026-05-04 12:32 39.55764 2.73731 38 ft 13 kts 59°
2026-05-04 12:32 39.55898 2.74018 37 ft 26 kts 57°
2026-05-04 12:32 39.56000 2.74229 38 ft 27 kts 58°
2026-05-04 12:33 39.56094 2.74417 38 ft 18 kts 47°
2026-05-04 12:33 39.56197 2.74420 36 ft 15 kts 332°
2026-05-04 12:33 39.56250 2.74325 38 ft 13 kts 265°
2026-05-04 12:33 39.56206 2.74218 38 ft 18 kts 238°
2026-05-04 12:34 39.56063 2.73919 38 ft 69 kts 238°
2026-05-04 12:34 39.55708 2.73169 39 ft 124 kts 238°
2026-05-04 12:34 39.55184 2.72051 59 ft 162 kts 238°
2026-05-04 12:34 39.54608 2.70819 694 ft 156 kts 237°
2026-05-04 12:35 39.54038 2.69619 1301 ft 160 kts 237°
2026-05-04 12:35 39.53431 2.68341 1549 ft 176 kts 238°
2026-05-04 12:35 39.52766 2.66936 1720 ft 192 kts 239°
2026-05-04 12:35 39.52041 2.65407 1995 ft 202 kts 237°
2026-05-04 12:36 39.51299 2.63842 2430 ft 205 kts 237°
2026-05-04 12:36 39.50552 2.62270 3008 ft 205 kts 237°
2026-05-04 12:36 39.49690 2.60815 3445 ft 214 kts 219°
2026-05-04 12:36 39.48332 2.59805 3641 ft 237 kts 208°
2026-05-04 12:37 39.46797 2.58819 4107 ft 249 kts 208°
2026-05-04 12:37 39.45255 2.57825 4757 ft 253 kts 208°
2026-05-04 12:37 39.43638 2.56882 5090 ft 257 kts 195°
2026-05-04 12:37 39.41854 2.56982 5790 ft 266 kts 162°
2026-05-04 12:38 39.40292 2.58350 6471 ft 276 kts 140°
2026-05-04 12:38 39.38876 2.60043 7121 ft 277 kts 146°
2026-05-04 12:38 39.37362 2.61591 7755 ft 280 kts 144°
2026-05-04 12:38 39.35936 2.63338 8401 ft 284 kts 139°
2026-05-04 12:39 39.34540 2.65113 9039 ft 286 kts 141°
2026-05-04 12:39 39.33075 2.66887 9700 ft 288 kts 142°
2026-05-04 12:39 39.31600 2.68650 10184 ft 296 kts 142°
2026-05-04 12:39 39.30029 2.70524 10305 ft 317 kts 142°
2026-05-04 12:40 39.28383 2.72544 10428 ft 338 kts 136°
2026-05-04 12:40 39.27127 2.75236 10554 ft 366 kts 111°
2026-05-04 12:40 39.26781 2.78557 10696 ft 387 kts 93°
2026-05-04 12:40 39.26770 2.82086 11100 ft 395 kts 92°
2026-05-04 12:41 39.26806 2.85646 11613 ft 399 kts 88°
2026-05-04 12:41 39.27246 2.89211 12172 ft 405 kts 76°
2026-05-04 12:41 39.28188 2.92661 12715 ft 409 kts 65°
2026-05-04 12:41 39.29538 2.95872 13257 ft 412 kts 59°
2026-05-04 12:42 39.30971 2.99088 13798 ft 415 kts 60°
2026-05-04 12:42 39.32416 3.02343 14262 ft 419 kts 60°
2026-05-04 12:42 39.33866 3.05618 14686 ft 423 kts 60°
2026-05-04 12:42 39.35336 3.08933 15106 ft 427 kts 59°
2026-05-04 12:43 39.36827 3.12294 15524 ft 431 kts 59°
2026-05-04 12:43 39.38324 3.15677 15939 ft 435 kts 59°
2026-05-04 12:43 39.39827 3.19080 16346 ft 439 kts 59°
2026-05-04 12:43 39.41358 3.22550 16755 ft 443 kts 59°
2026-05-04 12:44 39.42880 3.25998 17151 ft 447 kts 59°
2026-05-04 12:44 39.44458 3.29516 17534 ft 451 kts 58°
2026-05-04 12:44 39.46067 3.33017 17920 ft 455 kts 57°
2026-05-04 12:44 39.47689 3.36500 18322 ft 459 kts 57°
2026-05-04 12:45 39.49344 3.40045 18658 ft 462 kts 57°
2026-05-04 12:45 39.51010 3.43626 18999 ft 465 kts 58°
2026-05-04 12:45 39.52680 3.47242 19339 ft 469 kts 58°
2026-05-04 12:45 39.54346 3.50873 19745 ft 470 kts 58°
2026-05-04 12:46 39.56016 3.54533 20110 ft 472 kts 59°
2026-05-04 12:46 39.57686 3.58201 20456 ft 475 kts 59°
2026-05-04 12:46 39.59374 3.61903 20794 ft 478 kts 59°
2026-05-04 12:46 39.61072 3.65630 21132 ft 481 kts 59°
2026-05-04 12:47 39.62223 3.68156 21355 ft 483 kts 59°
2026-05-04 12:47 39.63935 3.71926 21676 ft 486 kts 59°
2026-05-04 12:47 39.65654 3.75716 22010 ft 489 kts 59°
2026-05-04 12:47 39.67362 3.79485 22325 ft 492 kts 59°
2026-05-04 12:48 39.69125 3.83371 22649 ft 495 kts 59°
2026-05-04 12:48 39.70878 3.87234 22945 ft 498 kts 59°
2026-05-04 12:48 39.72643 3.91132 23249 ft 501 kts 59°
2026-05-04 12:48 39.74414 3.95049 23572 ft 504 kts 59°
2026-05-04 12:49 39.76167 3.98929 23841 ft 506 kts 59°
2026-05-04 12:49 39.77949 4.02881 24125 ft 508 kts 59°
2026-05-04 12:49 39.79735 4.06849 24389 ft 510 kts 59°
2026-05-04 12:49 39.81570 4.10883 24654 ft 512 kts 57°
2026-05-04 12:50 39.83692 4.14549 24896 ft 513 kts 46°
2026-05-04 12:50 39.86263 4.17768 25140 ft 513 kts 36°
2026-05-04 12:50 39.89184 4.20416 25360 ft 511 kts 26°
2026-05-04 12:50 39.92366 4.22438 25594 ft 507 kts 17°
2026-05-04 12:51 39.95711 4.23788 25846 ft 503 kts
2026-05-04 12:51 39.99141 4.24627 26134 ft 501 kts
2026-05-04 12:51 40.02585 4.25438 26388 ft 503 kts
2026-05-04 12:51 40.06041 4.26251 26643 ft 505 kts
2026-05-04 12:52 40.09505 4.27063 26877 ft 507 kts
2026-05-04 12:52 40.12988 4.27878 27122 ft 509 kts
2026-05-04 12:52 40.16474 4.28697 27411 ft 510 kts
2026-05-04 12:52 40.19969 4.29524 27735 ft 510 kts
2026-05-04 12:53 40.23465 4.30353 28029 ft 510 kts
2026-05-04 12:53 40.26954 4.31179 28327 ft 510 kts
2026-05-04 12:53 40.30445 4.32005 28624 ft 510 kts
2026-05-04 12:53 40.33939 4.32834 28927 ft 510 kts
2026-05-04 12:54 40.37438 4.33665 29215 ft 511 kts
2026-05-04 12:54 40.40943 4.34497 29514 ft 511 kts
2026-05-04 12:54 40.44441 4.35326 29727 ft 513 kts
2026-05-04 12:54 40.47961 4.36162 29980 ft 514 kts
2026-05-04 12:55 40.51478 4.37000 30221 ft 514 kts
2026-05-04 12:55 40.54970 4.37836 30475 ft 514 kts
2026-05-04 12:55 40.58537 4.38693 30749 ft 513 kts
2026-05-04 12:55 40.62046 4.39536 31023 ft 513 kts
2026-05-04 12:56 40.65553 4.40376 31299 ft 512 kts
2026-05-04 12:56 40.69006 4.41204 31576 ft 511 kts
2026-05-04 12:56 40.72546 4.42051 31850 ft 510 kts
2026-05-04 12:56 40.76039 4.42890 32132 ft 510 kts
2026-05-04 12:57 40.79527 4.43732 32407 ft 509 kts
2026-05-04 12:57 40.83005 4.44569 32695 ft 508 kts
2026-05-04 12:57 40.86441 4.45398 32910 ft 509 kts
2026-05-04 12:57 40.89928 4.46242 33146 ft 509 kts
2026-05-04 12:58 40.93417 4.47088 33402 ft 509 kts
2026-05-04 12:58 40.96899 4.47933 33661 ft 508 kts
2026-05-04 12:58 41.00377 4.48777 33923 ft 507 kts
2026-05-04 12:58 41.03853 4.49622 34153 ft 507 kts
2026-05-04 12:59 41.07321 4.50462 34383 ft 507 kts
2026-05-04 12:59 41.10797 4.51302 34583 ft 507 kts
2026-05-04 12:59 41.14258 4.52138 34795 ft 506 kts
2026-05-04 12:59 41.17720 4.52979 34947 ft 506 kts
2026-05-04 13:00 41.21181 4.53823 34984 ft 505 kts
2026-05-04 13:00 41.28086 4.55512 34985 ft 504 kts
2026-05-04 13:01 41.34972 4.57201 34980 ft 503 kts
2026-05-04 13:01 41.41836 4.58891 34980 ft 501 kts
2026-05-04 13:02 41.48692 4.60571 35002 ft 501 kts
2026-05-04 13:02 41.55546 4.62253 34998 ft 500 kts
2026-05-04 13:03 41.62402 4.63946 34992 ft 500 kts
2026-05-04 13:03 41.69240 4.65654 35010 ft 500 kts
2026-05-04 13:04 41.75870 4.68765 35003 ft 512 kts 24°
2026-05-04 13:04 41.82027 4.73649 35002 ft 514 kts 27°
2026-05-04 13:05 41.88168 4.78578 34996 ft 514 kts 27°
2026-05-04 13:05 41.94266 4.83480 35004 ft 514 kts 27°
2026-05-04 13:06 42.00411 4.88450 35002 ft 514 kts 27°
2026-05-04 13:06 42.06549 4.93431 34998 ft 514 kts 27°
2026-05-04 13:07 42.12666 4.98404 35003 ft 513 kts 27°
2026-05-04 13:07 42.18783 5.03371 35008 ft 513 kts 27°
2026-05-04 13:08 42.24883 5.08345 35007 ft 513 kts 27°
2026-05-04 13:08 42.30993 5.13338 35032 ft 513 kts 27°
2026-05-04 13:09 42.37101 5.18343 35025 ft 511 kts 27°
2026-05-04 13:09 42.43145 5.23306 35017 ft 511 kts 27°
2026-05-04 13:10 42.49216 5.28303 35016 ft 511 kts 27°
2026-05-04 13:10 42.55296 5.33325 35015 ft 510 kts 27°
2026-05-04 13:11 42.61351 5.38334 35020 ft 510 kts 27°
2026-05-04 13:11 42.67401 5.43352 35032 ft 509 kts 27°
2026-05-04 13:12 42.73443 5.48379 35028 ft 509 kts 27°
2026-05-04 13:12 42.79484 5.53402 35019 ft 509 kts 27°
2026-05-04 13:13 42.85522 5.58427 35022 ft 509 kts 27°
2026-05-04 13:13 42.91561 5.63470 35052 ft 508 kts 27°
2026-05-04 13:14 42.97578 5.68521 35060 ft 508 kts 27°
2026-05-04 13:14 43.03598 5.73584 35043 ft 507 kts 27°
2026-05-04 13:15 43.09595 5.78638 35069 ft 506 kts 27°
2026-05-04 13:15 43.15585 5.83699 35065 ft 506 kts 27°
2026-05-04 13:16 43.21562 5.88757 35063 ft 505 kts 27°
2026-05-04 13:16 43.27541 5.93826 35059 ft 504 kts 27°
2026-05-04 13:17 43.33509 5.98905 35061 ft 504 kts 27°
2026-05-04 13:17 43.39694 6.03050 35058 ft 493 kts 12°
2026-05-04 13:18 43.46318 6.04738 35047 ft 479 kts 357°
2026-05-04 13:18 43.52973 6.05384 35049 ft 480 kts 357°
2026-05-04 13:19 43.59635 6.06056 35042 ft 480 kts 358°
2026-05-04 13:19 43.66293 6.06746 35043 ft 480 kts 358°
2026-05-04 13:20 43.72955 6.07433 35048 ft 481 kts 359°
2026-05-04 13:20 43.79541 6.09565 35028 ft 494 kts 17°
2026-05-04 13:21 43.85775 6.13714 35045 ft 497 kts 21°
2026-05-04 13:21 43.91974 6.17947 35061 ft 496 kts 21°
2026-05-04 13:22 43.98166 6.22166 35065 ft 496 kts 21°
2026-05-04 13:22 44.04353 6.26403 35056 ft 495 kts 22°
2026-05-04 13:23 44.10499 6.30621 35067 ft 496 kts 22°
2026-05-04 13:23 44.16680 6.34877 35059 ft 495 kts 22°
2026-05-04 13:24 44.22857 6.39144 35074 ft 495 kts 22°
2026-05-04 13:24 44.29048 6.43438 35091 ft 495 kts 22°
2026-05-04 13:25 44.38313 6.49872 35082 ft 495 kts 22°
2026-05-04 13:25 44.44474 6.54143 35122 ft 494 kts 22°
2026-05-04 13:26 44.50620 6.58421 35138 ft 493 kts 23°
2026-05-04 13:26 44.56706 6.62678 35127 ft 492 kts 23°
2026-05-04 13:27 44.62836 6.66968 35129 ft 492 kts 22°
2026-05-04 13:27 44.68958 6.71254 35141 ft 492 kts 23°
2026-05-04 13:28 44.75083 6.75557 35140 ft 491 kts 23°
2026-05-04 13:28 44.81254 6.79633 35155 ft 487 kts 15°
2026-05-04 13:29 44.86590 6.82153 35154 ft 486 kts 14°
2026-05-04 13:29 44.93008 6.85177 35152 ft 486 kts 14°
2026-05-04 13:30 44.99413 6.88219 35163 ft 486 kts 15°
2026-05-04 13:30 45.05820 6.91274 35138 ft 486 kts 15°
2026-05-04 13:31 45.12212 6.94323 35139 ft 485 kts 15°
2026-05-04 13:31 45.18599 6.97373 35151 ft 484 kts 15°
2026-05-04 13:32 45.24979 7.00425 35162 ft 484 kts 15°
2026-05-04 13:32 45.31350 7.03480 35153 ft 483 kts 15°
2026-05-04 13:33 45.37731 7.06548 35175 ft 483 kts 15°
2026-05-04 13:33 45.44102 7.09616 35180 ft 483 kts 16°
2026-05-04 13:34 45.50470 7.12695 35170 ft 483 kts 15°
2026-05-04 13:34 45.56833 7.15772 35171 ft 483 kts 16°
2026-05-04 13:35 45.66369 7.20406 35148 ft 483 kts 16°
2026-05-04 13:36 45.72740 7.23516 35137 ft 483 kts 16°
2026-05-04 13:36 45.79108 7.26637 35143 ft 483 kts 16°
2026-05-04 13:37 45.85417 7.29721 35142 ft 483 kts 16°
2026-05-04 13:37 45.91775 7.32845 35141 ft 483 kts 16°
2026-05-04 13:38 45.98138 7.35979 35079 ft 482 kts 17°
2026-05-04 13:38 46.04486 7.39108 35055 ft 482 kts 16°
2026-05-04 13:39 46.10828 7.42244 35045 ft 482 kts 16°
2026-05-04 13:39 46.17204 7.45401 35046 ft 481 kts 17°
2026-05-04 13:40 46.23480 7.48524 35047 ft 480 kts 17°
2026-05-04 13:40 46.29788 7.51671 35067 ft 479 kts 17°
2026-05-04 13:41 46.36090 7.54820 35052 ft 479 kts 17°
2026-05-04 13:41 46.42394 7.57975 35050 ft 479 kts 17°
2026-05-04 13:42 46.51847 7.62711 35031 ft 479 kts 17°
2026-05-04 13:42 46.58153 7.65891 35016 ft 479 kts 17°
2026-05-04 13:43 46.64448 7.69071 35014 ft 478 kts 17°
2026-05-04 13:43 46.70733 7.72253 35013 ft 479 kts 17°
2026-05-04 13:44 46.77032 7.75447 35008 ft 479 kts 17°
2026-05-04 13:44 46.83329 7.78648 34999 ft 479 kts 17°
2026-05-04 13:45 46.89620 7.81862 34992 ft 479 kts 17°
2026-05-04 13:45 46.95910 7.85074 34984 ft 479 kts 17°
2026-05-04 13:46 47.02202 7.88303 34978 ft 479 kts 17°
2026-05-04 13:46 47.08455 7.91703 34965 ft 480 kts 24°
2026-05-04 13:47 47.13965 7.97138 34974 ft 482 kts 43°
2026-05-04 13:47 47.18263 8.04751 34968 ft 482 kts 56°
2026-05-04 13:48 47.21868 8.13054 34963 ft 482 kts 60°
2026-05-04 13:48 47.25290 8.21554 34962 ft 482 kts 60°
2026-05-04 13:49 47.29050 8.29711 34962 ft 483 kts 47°
2026-05-04 13:49 47.34217 8.35966 34969 ft 480 kts 29°
2026-05-04 13:50 47.40182 8.40334 34970 ft 479 kts 24°
2026-05-04 13:50 47.46181 8.44595 34995 ft 479 kts 24°
2026-05-04 13:51 47.52194 8.48867 35003 ft 479 kts 24°
2026-05-04 13:51 47.58198 8.53133 35004 ft 479 kts 24°
2026-05-04 13:52 47.67179 8.59551 34995 ft 479 kts 24°
2026-05-04 13:53 47.73178 8.63849 34994 ft 479 kts 24°
2026-05-04 13:53 47.79186 8.68175 34984 ft 479 kts 24°
2026-05-04 13:54 47.88208 8.74669 34982 ft 480 kts 24°
2026-05-04 13:55 47.97221 8.81173 34990 ft 479 kts 24°
2026-05-04 13:55 48.06204 8.87699 34988 ft 479 kts 24°
2026-05-04 13:56 48.12201 8.92070 34995 ft 479 kts 24°